Location: Llanfihangel-Ystrad
(52.1833°N, 4.1667°W)
Time: 18:04:44
(UTC+00:00)

Cosmos 1356 Rocket - Pass Details

Date: 17 February 2020
Orbit: 543 x 598 km, 81.2° (Epoch: 31 March)

Event Time Altitude Azimuth Distance (km) Brightness Sun altitude
Exits shadow 05:34:36 36° 231° (SW) 891 3.9 -18.2°
Maximum altitude 05:35:55 53° 287° (WNW) 689 3.4 -18.0°
Drops below altitude 10° 05:39:58 10° 5° (N) 1,871 6.1 -17.3°
Sets 05:42:13 0° 10° (N) 2,783 7.1 -17.0°
